Regional Weather Roundup
Issued by NWS

Home | Current Version | Previous Version | Text Only | Print | Product List | Glossary Off
Versions: 1 2 3 4 5 6 7 8 9 10 11 12 13 14 15 16 17 18 19 20 21 22 23 24 25 26 27 28 29 30 31 32 33 34 35 36 37 38 39 40 41 42 43 44 45 46 47 48 49 50

000
ASUS43 KBIS 290320
RWRND

NORTH DAKOTA REGIONAL WEATHER ROUNDUP
NATIONAL WEATHER SERVICE BISMARCK ND
1000 PM CDT THU AUG 28 2014

NOTE: "FAIR" INDICATES FEW OR NO CLOUDS BELOW 12,000 FEET WITH NO
SIGNIFICANT WEATHER AND/OR OBSTRUCTIONS TO VISIBILITY.


NDZ001>003-009>011-017-290400-
NORTHWEST NORTH DAKOTA

CITY           SKY/WX    TMP DP  RH WIND       PRES   REMARKS
WILLISTON      CLEAR     73  51  46 W10       29.78R
MINOT          CLEAR     72  66  81 SE8       29.77S
MINOT AFB      CLEAR     70  69  96 S9        29.76R
$$

NDZ018>021-031>035-040>046-290400-
SOUTHWEST NORTH DAKOTA

CITY           SKY/WX    TMP DP  RH WIND       PRES   REMARKS
BISMARCK       MOCLDY    64  63  96 SE3       29.85S
DICKINSON      CLEAR     66  58  75 S9        29.83R
GARRISON         N/A     70  68  93 S8        29.81S
HETTINGER ARPT PTCLDY    66  58  75 SE5       29.89R
$$

NDZ004>008-012>016-024-026-027-054-290400-
NORTHEAST NORTH DAKOTA

CITY           SKY/WX    TMP DP  RH WIND       PRES   REMARKS
GRAND FORKS    CLOUDY    69  64  84 S9        29.86R
GRND FRKS AFB  CLOUDY    68  68  99 S9        29.86S
DEVILS LAKE    MOCLDY    68  63  83 S13       29.82F
$$

NDZ022-023-025-028>030-036>039-047>053-290400-
SOUTHEAST NORTH DAKOTA

CITY           SKY/WX    TMP DP  RH WIND       PRES   REMARKS
FARGO          CLOUDY    67  64  90 SE9       29.86F
JAMESTOWN      CLOUDY    67  65  93 S6        29.87R
$$



USA.gov is the U.S. government's official web portal to all federal, state and local government web resources and services.